Weather History for Ithaca, NY

Change the Weather History Date:

Sunday, October 12, 2014

  Actual Average Record
Temperature  
Mean Temperature 44 °F -  
Max Temperature 59 °F 59 °F 86 °F (1928)
Min Temperature 30 °F 39 °F 23 °F (1964)
Degree Days  
Heating Degree Days 20    
Moisture  
Dew Point 34 °F    
Average Humidity 73    
Maximum Humidity 100    
Minimum Humidity 39    
Precipitation  
Precipitation 0.00 in - - ()
Sea Level Pressure  
Sea Level Pressure 30.28 in    
Wind  
Wind Speed 4 mph (ESE)    
Max Wind Speed 8 mph    
Max Gust Speed -    
Visibility 10 miles    
Events      
Averages and records for this station are not official NWS values.
T = Trace of Precipitation, MM = Missing Value Source: NWS Daily Summary

Daily Weather History Graph

Daily Weather History Graph

Search for Another Location

Airport:

Trip Planner

Search our weather history database for the weather conditions in past years. The results will help you decide how hot, cold, wet, or windy it might be!

Date:

Astronomy

Oct. 12, 2014 Rise Set
Actual Time 7:15 AM EDT 6:28 PM EDT
Civil Twilight 6:47 AM EDT 6:56 PM EDT
Nautical Twilight 6:14 AM EDT 7:29 PM EDT
Astronomical Twilight 5:41 AM EDT 8:01 PM EDT
Moon 9:40 PM EDT (10/12) 11:39 AM EDT (10/12)
Length of Visible Light 12h 09m
Length of Day
11h 13m
Waning Gibbous, 79% of the Moon is Illuminated
Oct 12
Waning Gibbous
Oct 15
Last Quarter
Oct 23
New
Oct 30
First Quarter
Nov 6
Full

Hourly Weather History & Observations

Time (EDT) Temp. Windchill Dew Point Humidity Pressure Visibility Wind Dir Wind Speed Gust Speed Precip Events Conditions
12:56 AM 34.0 °F 29.8 °F 34.0 °F 100% 30.25 in 10.0 mi East 4.6 mph - N/A   Clear
1:56 AM 32.9 °F 29.8 °F 32.0 °F 96% 30.26 in 9.0 mi East 3.5 mph - N/A   Clear
2:56 AM 32.0 °F 27.5 °F 32.0 °F 100% 30.26 in 10.0 mi East 4.6 mph - N/A   Clear
3:56 AM 32.9 °F 28.5 °F 32.0 °F 96% 30.26 in 10.0 mi East 4.6 mph - N/A   Clear
4:56 AM 31.1 °F 26.4 °F 31.1 °F 100% 30.28 in 10.0 mi East 4.6 mph - N/A   Clear
5:56 AM 31.1 °F 26.4 °F 31.1 °F 100% 30.29 in 10.0 mi East 4.6 mph - N/A   Clear
6:25 AM 30.2 °F 24.3 °F 30.2 °F 100% 30.27 in 10.0 mi East 5.8 mph - N/A   Clear
6:56 AM 32.0 °F 27.5 °F 32.0 °F 100% 30.31 in 10.0 mi East 4.6 mph - N/A   Clear
7:56 AM 32.9 °F 27.5 °F 32.9 °F 100% 30.31 in 10.0 mi East 5.8 mph - N/A   Clear
8:56 AM 37.9 °F - 36.9 °F 96% 30.34 in 10.0 mi Calm Calm - N/A   Clear
9:56 AM 45.9 °F - 37.9 °F 74% 30.34 in 10.0 mi Calm Calm - N/A   Clear
10:56 AM 48.9 °F - 37.9 °F 66% 30.33 in 10.0 mi Calm Calm - N/A   Partly Cloudy
11:56 AM 54.0 °F - 34.9 °F 49% 30.32 in 10.0 mi Calm Calm - N/A   Clear
12:56 PM 54.9 °F - 34.0 °F 45% 30.30 in 10.0 mi SW 4.6 mph - N/A   Clear
1:56 PM 57.9 °F - 34.9 °F 42% 30.28 in 10.0 mi NW 5.8 mph - N/A   Clear
2:56 PM 59.0 °F - 34.9 °F 40% 30.26 in 10.0 mi West 3.5 mph - N/A   Clear
3:56 PM 59.9 °F - 34.9 °F 39% 30.24 in 10.0 mi South 5.8 mph - N/A   Clear
4:56 PM 56.8 °F - 34.0 °F 42% 30.24 in 10.0 mi South 8.1 mph - N/A   Clear
5:56 PM 55.9 °F - 36.0 °F 47% 30.24 in 10.0 mi SSE 3.5 mph - N/A   Clear
6:56 PM 48.9 °F - 36.0 °F 61% 30.25 in 10.0 mi ESE 5.8 mph - N/A   Clear
7:56 PM 47.8 °F - 36.9 °F 66% 30.25 in 10.0 mi ESE 4.6 mph - N/A   Clear
8:56 PM 45.0 °F 41.8 °F 36.0 °F 71% 30.26 in 10.0 mi ESE 5.8 mph - N/A   Clear
9:56 PM 43.0 °F 40.3 °F 34.9 °F 73% 30.25 in 10.0 mi SE 4.6 mph - N/A   Clear
10:56 PM 43.0 °F 38.8 °F 34.0 °F 71% 30.26 in 10.0 mi SSE 6.9 mph - N/A   Clear
11:56 PM 47.8 °F - 36.0 °F 63% 30.24 in 10.0 mi SSE 8.1 mph - N/A   Clear